[[{"header":{"parameterUnit":"m.s-1","parameterCategory":1,"la1":30.2991,"la2":30.254,"lo1":-89.0895,"lo2":-89.0444,"dy":0.0017,"dx":0.0017,"nx":28,"ny":28,"refTime":"2025-12-20T09:00:00:Z","depth":0,"parameterNumber":2,"parameterNumberName":"U-component_of_WINDS"},"data":[0,0,0,0,0,0,0,0,0,0,0,0,0,0,0,0,0,0,0,0,0,0,0,0,0,0,0,0,0,0,0,0,0,0,0,0,0,0,0,0,0,0,0,0,0,0,0,0,0,0,0,0,0,0,0,0,0,0,-0.0296,-0.0295,0,-0.0205,-0.0204,-0.0203,-0.0137,-0.0137,-0.0136,-0.0136,-0.0043,-0.0041,-0.0039,0,0,0,0,0,0,0,0,0,0,0,0,0,-0.0415,-0.0413,-0.0297,-0.0295,-0.0294,-0.0205,-0.0204,-0.0203,-0.0138,-0.0137,-0.0136,-0.0136,-0.0044,-0.0041,-0.0039,0,0,0,0,0,0,0,0,0,0,0,0,0,-0.0347,-0.0412,-0.0297,-0.0251,-0.0246,-0.0205,-0.0204,-0.0202,-0.0138,-0.0137,-0.0136,-0.0135,-0.0044,-0.0042,-0.0039,-0.0037,0,0,-0.003,-0.0028,0,0,0,0,0,0,0,0,-0.0351,-0.0343,-0.0259,-0.0254,-0.0248,-0.0182,-0.0211,-0.0147,-0.0138,-0.0179,-0.0136,-0.0135,-0.009,-0.0083,-0.0068,-0.0032,-0.0028,-0.0029,-0.0028,-0.0026,-0.0026,0,0,0,0,0,0,0,-0.0356,-0.0347,-0.026,-0.0258,-0.0251,-0.0235,-0.0225,-0.0199,-0.014,-0.0175,-0.017,-0.016,-0.0087,-0.0071,-0.0065,-0.0027,-0.0029,-0.0027,-0.0025,-0.0024,0.0017,0.0016,0,0,0,0,0,0,-0.0368,-0.0351,-0.0263,-0.0258,-0.0299,-0.0234,-0.0222,-0.0204,-0.014,-0.013,-0.0161,-0.0158,-0.0076,-0.0069,-0.0062,-0.0054,-0.0026,-0.0024,-0.0022,0.0017,0.0016,0.0016,0,0,0,0,0,0,-0.0371,-0.0361,-0.0267,-0.0303,-0.029,-0.0232,-0.0213,-0.0203,-0.0186,-0.0129,-0.0119,-0.0155,-0.0075,-0.0066,-0.0043,-0.005,-0.0022,-0.002,0.0018,0.0017,0.0016,-0.0039,0,0,0,0,0,0,-0.0374,-0.0362,-0.0361,-0.0303,-0.0288,-0.025,-0.0213,-0.0201,-0.0181,-0.0176,-0.0121,-0.0111,-0.0074,-0.0048,-0.004,-0.0045,-0.0017,0.0019,0.0018,0.0016,-0.0036,-0.0042,-0.0046,0,0,0,0,0,-0.0379,-0.038,-0.0361,-0.0351,-0.0285,-0.025,-0.0242,-0.0198,-0.0182,-0.018,-0.0143,-0.0113,-0.005,-0.0046,-0.0037,-0.0041,0.002,0.0018,0.0016,-0.0034,-0.0041,-0.0046,0,0,0,0,0,0,-0.0441,-0.0372,-0.035,-0.0333,-0.0298,-0.0239,-0.0236,-0.0207,-0.0176,-0.0172,-0.012,-0.0108,-0.0091,-0.0064,-0.006,-0.0035,-0.0012,-0.0011,-0.0053,-0.0059,-0.0064,-0.007,-0.0015,0,0,0,0,0,-0.0452,-0.043,-0.0371,-0.0362,-0.0345,-0.0294,-0.0277,-0.0246,-0.0208,-0.0193,-0.0155,-0.0119,-0.0091,-0.0074,-0.0045,-0.0032,-0.0019,-0.0031,-0.0036,-0.004,-0.004,-0.003,-0.0035,0.001,0.001,0.0011,0,0,-0.0476,-0.0436,-0.0425,-0.0373,-0.0342,-0.032,-0.0282,-0.026,-0.0242,-0.019,-0.0165,-0.0136,-0.0093,-0.0075,-0.0065,-0.0052,-0.005,-0.0042,-0.0046,-0.0044,-0.0032,-0.0037,-0.0041,0.0009,0.001,0.001,0,0,-0.0508,-0.0476,-0.0464,-0.0433,-0.0387,-0.0353,-0.035,-0.0295,-0.0274,-0.0248,-0.0208,-0.0187,-0.014,-0.011,-0.0089,-0.0108,-0.0079,-0.0101,-0.0127,-0.0118,-0.0121,-0.0124,-0.013,-0.0133,-0.0101,-0.0101,-0.0101,0,-0.0544,-0.0508,-0.0461,-0.0441,-0.0419,-0.037,-0.0357,-0.033,-0.0277,-0.0263,-0.0249,-0.0188,-0.0156,-0.0129,-0.0134,-0.0119,-0.0113,-0.0106,-0.0124,-0.0127,-0.0129,-0.0134,-0.0136,-0.0104,-0.0104,-0.0103,-0.0103,0,-0.0553,-0.0529,-0.0525,-0.0474,-0.0452,-0.0436,-0.0386,-0.0369,-0.0341,-0.0308,-0.0282,-0.0241,-0.0202,-0.0194,-0.0166,-0.0163,-0.0156,-0.0134,-0.011,-0.0137,-0.014,-0.0142,-0.0108,-0.0107,-0.0106,-0.0106,0,0,-0.0622,-0.0544,-0.0544,-0.0519,-0.0464,-0.0444,-0.0426,-0.0387,-0.0373,-0.0339,-0.0321,-0.0282,-0.0261,-0.0237,-0.0205,-0.0197,-0.0214,-0.0176,-0.0174,-0.0183,-0.0206,-0.0223,-0.0226,-0.0194,-0.0194,-0.0195,-0.021,0,-0.0644,-0.0607,-0.0564,-0.0542,-0.0519,-0.0471,-0.0455,-0.0419,-0.0388,-0.0363,-0.0329,-0.0301,-0.0276,-0.0261,-0.0251,-0.0214,-0.0218,-0.0212,-0.0177,-0.0176,-0.0188,-0.0228,-0.0245,-0.0261,-0.0211,-0.0211,-0.0211,0,-0.0665,-0.0631,-0.0607,-0.0553,-0.0541,-0.0527,-0.0488,-0.0465,-0.0424,-0.0401,-0.0374,-0.034,-0.0317,-0.0296,-0.0264,-0.0261,-0.0244,-0.0224,-0.0223,-0.0217,-0.0195,-0.0222,-0.0266,-0.0268,-0.0213,-0.0213,-0.0213,0,-0.0716,-0.0665,-0.0643,-0.0624,-0.056,-0.0551,-0.0524,-0.0482,-0.0461,-0.0427,-0.0413,-0.0377,-0.0357,-0.033,-0.0287,-0.0276,-0.0259,-0.0235,-0.0239,-0.024,-0.0237,-0.0238,-0.0277,-0.0228,-0.0228,-0.0228,-0.0228,0,-0.0744,-0.0731,-0.0664,-0.0651,-0.0634,-0.0585,-0.057,-0.0539,-0.0501,-0.0481,-0.0438,-0.042,-0.0365,-0.034,-0.0306,-0.0283,-0.0275,-0.0256,-0.0247,-0.0259,-0.0261,-0.0247,-0.0244,-0.0229,-0.0229,-0.0228,-0.0228,0,-0.0798,-0.0753,-0.0726,-0.0667,-0.0653,-0.0643,-0.0593,-0.0578,-0.0544,-0.0518,-0.0509,-0.0456,-0.0424,-0.0379,-0.0334,-0.0311,-0.0293,-0.0279,-0.0307,-0.0301,-0.0308,-0.0307,-0.0339,-0.034,-0.0291,-0.0292,-0.0292,0,-0.0819,-0.0807,-0.0747,-0.073,-0.0704,-0.0678,-0.0656,-0.0607,-0.0586,-0.0538,-0.0528,-0.0493,-0.0462,-0.0414,-0.0371,-0.0336,-0.032,-0.0333,-0.0315,-0.0327,-0.0319,-0.0319,-0.0317,-0.0338,-0.0339,-0.0339,-0.034,0,-0.086,-0.0838,-0.0808,-0.077,-0.0745,-0.0713,-0.0679,-0.0668,-0.0612,-0.0591,-0.0557,-0.0533,-0.0487,-0.0452,-0.0411,-0.0383,-0.0352,-0.0346,-0.0345,-0.0357,-0.0373,-0.0363,-0.0318,-0.0345,-0.0345,-0.0344,-0.0344,-0.0344,-0.0896,-0.0883,-0.0839,-0.0807,-0.0776,-0.0745,-0.0727,-0.0691,-0.0662,-0.062,-0.0593,-0.0561,-0.0518,-0.046,-0.0433,-0.0407,-0.0394,-0.0393,-0.0393,-0.0393,-0.0397,-0.0378,-0.04,-0.04,-0.0399,-0.0399,-0.0399,0,-0.0934,-0.0903,-0.0874,-0.0827,-0.0802,-0.0775,-0.0735,-0.0716,-0.0688,-0.0651,-0.0621,-0.0583,-0.0548,-0.0503,-0.0465,-0.0453,-0.0438,-0.0445,-0.0445,-0.0439,-0.0411,-0.0415,-0.0458,-0.0458,-0.0458,-0.0458,-0.0458,-0.0458,-0.0951,-0.0926,-0.0899,-0.0859,-0.0828,-0.0795,-0.0775,-0.0746,-0.0716,-0.0675,-0.0646,-0.0616,-0.0575,-0.0535,-0.0502,-0.0489,-0.0477,-0.0488,-0.0471,-0.0446,-0.0441,-0.0436,-0.0439,-0.0486,-0.0486,-0.0501,-0.0501,-0.0501]},{"header":{"parameterUnit":"m.s-1","parameterCategory":1,"la1":30.2991,"la2":30.254,"lo1":-89.0895,"lo2":-89.0444,"dy":0.0017,"dx":0.0017,"nx":28,"ny":28,"refTime":"2025-12-20T09:00:00:Z","depth":0,"parameterNumber":3,"parameterNumberName":"V-component_of_WINDS"},"data":[0,0,0,0,0,0,0,0,0,0,0,0,0,0,0,0,0,0,0,0,0,0,0,0,0,0,0,0,0,0,0,0,0,0,0,0,0,0,0,0,0,0,0,0,0,0,0,0,0,0,0,0,0,0,0,0,0,0,0.8877,0.8876,0,0.8841,0.8841,0.884,0.8806,0.8806,0.8806,0.8805,0.8768,0.8768,0.8767,0,0,0,0,0,0,0,0,0,0,0,0,0,0.8914,0.8914,0.8877,0.8876,0.8876,0.8841,0.8841,0.884,0.8807,0.8806,0.8806,0.8805,0.8768,0.8768,0.8767,0,0,0,0,0,0,0,0,0,0,0,0,0,0.889,0.8914,0.8877,0.8855,0.8852,0.8841,0.8841,0.884,0.8807,0.8806,0.8805,0.8805,0.8769,0.8768,0.8767,0.8774,0,0,0.8764,0.8764,0,0,0,0,0,0,0,0,0.8892,0.8889,0.8858,0.8856,0.8854,0.8828,0.884,0.8818,0.8807,0.8824,0.8805,0.8804,0.8788,0.8786,0.8781,0.8772,0.8771,0.8764,0.8764,0.8763,0.8763,0,0,0,0,0,0,0,0.8893,0.889,0.8862,0.8858,0.8855,0.8846,0.8842,0.8836,0.881,0.8822,0.882,0.8816,0.8787,0.8782,0.8779,0.877,0.8764,0.8763,0.8763,0.8762,0.8767,0.8767,0,0,0,0,0,0,0.8899,0.8892,0.8864,0.8861,0.8872,0.8846,0.8842,0.8837,0.881,0.8806,0.8817,0.8815,0.8783,0.8781,0.8778,0.8785,0.8763,0.8762,0.8762,0.8766,0.8767,0.8767,0,0,0,0,0,0,0.89,0.8896,0.8865,0.8876,0.8871,0.8846,0.8841,0.8836,0.8831,0.8806,0.8801,0.8816,0.8783,0.8779,0.8776,0.8784,0.8762,0.8761,0.8765,0.8766,0.8767,0.88,0,0,0,0,0,0,0.8901,0.8897,0.89,0.8876,0.8871,0.8864,0.8841,0.8836,0.8829,0.8826,0.8804,0.88,0.8782,0.8777,0.8775,0.8782,0.876,0.8764,0.8766,0.8767,0.8798,0.8802,0.8805,0,0,0,0,0,0.8902,0.891,0.89,0.8897,0.8874,0.8864,0.8861,0.8841,0.883,0.8833,0.8817,0.88,0.8783,0.8777,0.8774,0.8781,0.8764,0.8765,0.8767,0.8796,0.8801,0.8805,0,0,0,0,0,0,0.8935,0.8907,0.8895,0.8896,0.8883,0.8858,0.8861,0.8846,0.8836,0.8833,0.8808,0.8804,0.8803,0.8791,0.8785,0.8787,0.8771,0.8772,0.8795,0.8799,0.8802,0.8806,0.876,0,0,0,0,0,0.8942,0.8937,0.8912,0.8915,0.8909,0.8886,0.8881,0.8867,0.8852,0.8846,0.883,0.8816,0.8807,0.8802,0.8793,0.8796,0.8791,0.8799,0.8803,0.8806,0.8807,0.8808,0.8812,0.8772,0.8772,0.8772,0,0,0.8957,0.8941,0.8939,0.8921,0.8909,0.8904,0.8882,0.8877,0.8873,0.8845,0.8841,0.8829,0.8811,0.8811,0.881,0.8802,0.8817,0.8808,0.881,0.881,0.881,0.8814,0.8817,0.8773,0.8773,0.8773,0,0,0.8982,0.8969,0.897,0.8959,0.8941,0.8926,0.8926,0.8904,0.8895,0.889,0.887,0.8864,0.885,0.8838,0.8831,0.8851,0.8836,0.8849,0.8868,0.8869,0.8872,0.8875,0.8883,0.8886,0.885,0.885,0.885,0,0.9003,0.8995,0.8973,0.897,0.8962,0.8937,0.8938,0.8928,0.8908,0.8904,0.8894,0.8876,0.8862,0.8859,0.8865,0.8859,0.8859,0.8852,0.8874,0.8876,0.8878,0.8885,0.8888,0.8852,0.8852,0.8851,0.8851,0,0.9021,0.9016,0.9019,0.9001,0.8994,0.8993,0.8971,0.8966,0.8952,0.8938,0.8933,0.8916,0.8903,0.8901,0.8887,0.8896,0.8892,0.8878,0.8862,0.8884,0.889,0.8893,0.8854,0.8854,0.8853,0.8853,0,0,0.9066,0.9036,0.9038,0.9029,0.9008,0.9003,0.9001,0.8989,0.8985,0.8972,0.897,0.8958,0.8946,0.8937,0.8922,0.8923,0.8941,0.8909,0.8908,0.8916,0.895,0.8961,0.8964,0.893,0.893,0.8931,0.8952,0,0.9088,0.9083,0.9063,0.9064,0.9059,0.9035,0.9033,0.9019,0.9006,0.8999,0.8984,0.8976,0.896,0.8955,0.8955,0.8939,0.8947,0.8937,0.8928,0.8928,0.8934,0.8968,0.8979,0.9,0.8954,0.8954,0.8955,0,0.9113,0.9103,0.9103,0.9082,0.9079,0.9078,0.9065,0.9059,0.9043,0.9033,0.9024,0.9006,0.9002,0.8987,0.8981,0.8974,0.8969,0.896,0.8961,0.896,0.8943,0.8969,0.9006,0.9009,0.8958,0.8958,0.8958,0,0.9147,0.9133,0.9131,0.9125,0.91,0.91,0.9089,0.9073,0.9067,0.9055,0.9051,0.9039,0.9032,0.9023,0.9003,0.8993,0.9,0.8982,0.8991,0.8992,0.8995,0.8995,0.9033,0.899,0.899,0.899,0.899,0,0.9175,0.9176,0.9146,0.9146,0.9147,0.9123,0.9125,0.9112,0.9097,0.9093,0.9071,0.9068,0.9041,0.9034,0.9018,0.9016,0.9013,0.9005,0.9001,0.9008,0.9009,0.9005,0.9003,0.8991,0.8991,0.899,0.899,0,0.9213,0.9193,0.919,0.9167,0.9161,0.9163,0.9143,0.9141,0.9126,0.9121,0.9119,0.9095,0.9086,0.9065,0.905,0.904,0.9042,0.9034,0.9048,0.9045,0.9056,0.9056,0.9094,0.9098,0.9052,0.9052,0.9052,0,0.9232,0.9233,0.921,0.9206,0.9197,0.9191,0.9184,0.9161,0.9155,0.9137,0.9138,0.9127,0.9118,0.9105,0.9086,0.9075,0.9067,0.9081,0.9065,0.9072,0.9068,0.9069,0.9069,0.9085,0.9085,0.9086,0.9086,0,0.9269,0.9259,0.9251,0.924,0.9233,0.9223,0.9211,0.9209,0.9183,0.9178,0.9169,0.9161,0.9147,0.9137,0.9122,0.9111,0.9095,0.9091,0.9093,0.91,0.9109,0.9105,0.9058,0.9091,0.909,0.909,0.909,0.9089,0.9299,0.9299,0.9283,0.9275,0.9264,0.9253,0.9251,0.9235,0.9227,0.9214,0.92,0.9193,0.9177,0.9156,0.9146,0.914,0.9131,0.9133,0.9134,0.9135,0.9139,0.9109,0.9137,0.9136,0.9136,0.9136,0.9136,0,0.9336,0.9324,0.9317,0.9301,0.9295,0.928,0.9266,0.9262,0.9256,0.9242,0.9233,0.9223,0.9213,0.9193,0.9181,0.918,0.9172,0.9178,0.9178,0.9176,0.9146,0.9147,0.9185,0.9185,0.9185,0.9185,0.9185,0.9185,0.9354,0.9353,0.9341,0.9334,0.9322,0.9315,0.9309,0.9299,0.9288,0.9278,0.927,0.9257,0.9241,0.9227,0.9218,0.9212,0.9209,0.9218,0.921,0.9183,0.9178,0.9174,0.9174,0.9217,0.9217,0.924,0.924,0.924]}]]